Regional Weather Roundup
Issued by NWS

Home | Current Version | Previous Version | Text Only | Print | Product List | Glossary Off
Versions: 1 2 3 4 5 6 7 8 9 10 11 12 13 14 15 16 17 18 19 20 21 22 23 24 25 26 27 28 29 30 31 32 33 34 35 36 37 38 39 40 41 42 43 44 45 46 47 48 49 50

000
ASUS43 KLSX 290059
RWRMO

WEATHER SUMMARY FOR MISSOURI
NATIONAL WEATHER SERVICE SPRINGFIELD MO
800 PM CDT SAT MAR 28 2015

NOTE: "FAIR" INDICATES FEW OR NO CLOUDS BELOW 12,000 FEET WITH NO
       SIGNIFICANT WEATHER AND/OR OBSTRUCTIONS TO VISIBILITY.
       CURRENT SKY AND/OR WEATHER CONDITIONS ARE NOT AVAILABLE FOR
       CHILLICOTHE AND FARMINGTON.

MOZ001>031-035>038-043-044-053-054-290200-
...NORTHERN AND WESTERN MISSOURI...

CITY           SKY/WX    TMP DP  RH WIND       PRES   REMARKS
KANSAS CTY INT CLEAR     47  31  53 SE15      30.10F
KANSAS C DTWN  CLEAR     50  30  46 SE8       30.11F
LEE`S SUMMIT   CLEAR     47  30  51 SE8       30.13S
ST JOSEPH      CLEAR     48  31  51 SE10      30.10F
CHILLICOTHE      N/A     45  30  55 SE6       30.16F
KIRKSVILLE     CLEAR     38  25  59 SE7       30.18F

$$
MOZ066>068-077>081-088>096-101>105-290200-
...SOUTHWEST MISSOURI...

CITY           SKY/WX    TMP DP  RH WIND       PRES   REMARKS
SPRINGFIELD    CLEAR     40  31  70 SE13      30.15S
JOPLIN         CLEAR     50  36  58 E9        30.11R

$$
MOZ032>034-039>042-045>050-055>058-069>072-290200-
...CENTRAL MISSOURI...

CITY           SKY/WX    TMP DP  RH WIND       PRES   REMARKS
COLUMBIA       CLEAR     42  27  55 SE7       30.19S
JEFFERSON CITY CLEAR     44  27  51 SE7       30.20S
ROLLA          CLEAR     39  29  67 S8        30.19R
SEDALIA        CLEAR     45  31  58 SE10      30.17S
OSAGE BEACH    CLEAR     43  28  56 SE8       30.20S

$$
MOZ051-052-059>065-290200-
...EAST CENTRAL MISSOURI...

CITY           SKY/WX    TMP DP  RH WIND       PRES   REMARKS
ST LOUIS INTL  PTCLDY    41  17  38 E12       30.26S
SPIRIT OF STL  CLEAR     41  18  39 E6        30.25S
ST CHARLES     CLEAR     37  25  61 E12       30.26S WCI  29

$$
MOZ072>076-082>087-097>100-106>115-290200-
...SOUTH CENTRAL AND SOUTHEAST MISSOURI...

CITY           SKY/WX    TMP DP  RH WIND       PRES   REMARKS
CAPE GIRARDEAU CLEAR     39  27  62 S7        30.29R
FARMINGTON     CLEAR     39  21  48 SE7       30.27S
POPLAR BLUFF   CLEAR     42  31  64 S6        30.28R
WEST PLAINS    CLOUDY    37  30  75 SE6       30.25R

$$



USA.gov is the U.S. government's official web portal to all federal, state and local government web resources and services.